Regional Weather Roundup
Issued by NWS Northern Indiana

Home | Current Version | Previous Version | Graphics & Text | Print | Product List | Glossary On
Versions: 1 2 3 4 5 6 7 8 9 10 11 12 13 14 15 16 17 18 19 20 21 22 23 24 25 26 27 28 29 30 31 32 33 34 35 36 37 38 39 40 41 42 43 44 45 46 47 48 49 50
471
ASUS43 KIWX 140600
RWRIWX

KIWX WEATHER ROUNDUP
NATIONAL WEATHER SERVICE NORTHERN INDIANA
100 AM EST THU DEC 14 2017

NOTE: "FAIR" INDICATES FEW OR NO CLOUDS BELOW 12,000 FEET WITH NO
SIGNIFICANT WEATHER AND/OR OBSTRUCTIONS TO VISIBILITY.

* THESE STATIONS ARE NOT UNDER NWS QUALITY CONTROL. THEY ALSO MAY NOT
  REPORT WEATHER SUCH AS PRECIPITATION OR FOG.

INZ001>027-140700-
NORTHERN INDIANA

CITY           SKY/WX    TMP DP  RH WIND       PRES   REMARKS
MICHIGAN CITY* CLOUDY    28  21  74 N16G25    29.74R WCI  17
LAPORTE*       CLOUDY    27  22  80 N21G29    29.71R HAZE    WCI  13
6HR MIN TEMP:  27; 6HR MAX TEMP:  33;

KNOX*          CLOUDY    28  23  80 N17       29.70R WCI  16
SOUTH BEND     PTCLDY    18  15  88 N15       29.71R WCI   4
6HR MIN TEMP:  18; 6HR MAX TEMP:  32; 6HR PCP:  0.01;

GOSHEN         CLOUDY    20  15  81 N14       29.68R WCI   7
6HR MIN TEMP:  20; 6HR MAX TEMP:  34; 6HR PCP: TRACE;

MONTICELLO*    CLOUDY    29  20  69 NW16      29.71R WCI  17
6HR MIN TEMP:  28; 6HR MAX TEMP:  37;

WARSAW*        CLOUDY    21  18  86 N16       29.67R WCI   7
AUBURN*        CLOUDY    23  18  80 NW12G22   29.63R WCI  12
FORT WAYNE     CLOUDY    25  20  81 NW15G28   29.64R WCI  13
6HR MIN TEMP:  25; 6HR MAX TEMP:  36; 6HR PCP:  0.01;

PERU/GRISSOM   CLOUDY    29  22  76 NW17      29.67R WCI  17
6HR MIN TEMP:  29; 6HR MAX TEMP:  37; 6HR PCP: TRACE;


$$
INZ028>050-140700-
CENTRAL INDIANA

CITY           SKY/WX    TMP DP  RH WIND       PRES   REMARKS
LAFAYETTE      CLOUDY    29  20  69 NW14G22   29.74R WCI  18
6HR MIN TEMP:  28; 6HR MAX TEMP:  38;

KOKOMO*        FLURRIES  29  22  75 NW15G26   29.68R WCI  18
6HR MIN TEMP:  29; 6HR MAX TEMP:  39; 6HR PCP: TRACE;

MUNCIE*        CLOUDY    31  21  66 NW21G29   29.64R WCI  18
6HR MIN TEMP:  31; 6HR MAX TEMP:  40; 6HR PCP:  0.03;

INDIANAPOLIS   CLOUDY    30  21  69 NW21G30   29.73R WCI  17
6HR MIN TEMP:  30; 6HR MAX TEMP:  42; 6HR PCP: TRACE;


$$
MIZ043>046-050>051-056>058-064>065-071>073-077>080-140700-
SOUTHWEST LOWER MICHIGAN

CITY           SKY/WX    TMP DP  RH WIND       PRES   REMARKS
BATTLE CREEK   CLOUDY    19  15  84 N18G28    29.67R WCI   4
6HR MIN TEMP:  19; 6HR MAX TEMP:  22; 6HR PCP:  0.01;

BENTON HARBOR  CLOUDY    22  15  75 VRB6      29.73R WCI  14
6HR MIN TEMP:  22; 6HR MAX TEMP:  33; 6HR PCP:  0.03;

COLDWATER*     MOCLDY    19  16  87 N9        29.64R WCI   8
6HR MIN TEMP:  19; 6HR MAX TEMP:  26;

HILLSDALE*     LGT SNOW  19  14  79 N12G18    29.58R WCI   7
HOLLAND        CLEAR     17  11  77 N10G17    29.75R WCI   5
6HR MIN TEMP:  17; 6HR MAX TEMP:  21; 6HR PCP:  0.02;

GRAND RAPIDS   CLEAR     16  11  80 N10       29.72R WCI   4
6HR MIN TEMP:  16; 6HR MAX TEMP:  20; 6HR PCP:  0.05;

KALAMAZOO      CLOUDY    20  15  81 N15       29.69R WCI   6
6HR MIN TEMP:  19; 6HR MAX TEMP:  24; 6HR PCP:  0.01;

STURGIS*       PTCLDY    17  14  87 N9        29.65R WCI   6
6HR MIN TEMP:  17; 6HR MAX TEMP:  27; 6HR PCP:  0.05;

THREE RIVERS*  FAIR      20  15  83 N9        29.68R WCI   9
6HR MIN TEMP:  20; 6HR MAX TEMP:  28;


$$
OHZ001>008-015>018-024>025-140700-
NORTHWEST OHIO

CITY           SKY/WX    TMP DP  RH WIND       PRES   REMARKS
DEFIANCE       CLOUDY    22  17  81 NW14      29.60R WCI   9
6HR MIN TEMP:  22; 6HR MAX TEMP:  33; 6HR PCP:  0.06;

FINDLAY        LGT SNOW  25  21  85 NW15      29.52R FOG     WCI  13
6HR MIN TEMP:  25; 6HR MAX TEMP:  35; 6HR PCP:  0.05;

TOLEDO EXPRESS LGT SNOW  22  20  92 N17       29.56R FOG     WCI   8
6HR MIN TEMP:  22; 6HR MAX TEMP:  26; 6HR PCP:  0.14;

TOLEDO METCALF LGT SNOW  23  19  85 N13G22    29.55R FOG     WCI  11
6HR MIN TEMP:  23; 6HR MAX TEMP:  28; 6HR PCP:  0.03;

LIMA           LGT SNOW  28  23  81 NW30G43   29.54R WCI  12
6HR MIN TEMP:  28; 6HR MAX TEMP:  34; 6HR PCP:  0.05;


$$
AND FOR LAKE MICHIGAN COASTAL AND OPEN LAKE BUOY OBSERVATIONS

STATION/POSITION TEMP    WIND        PRES    VSBY  WAVE
                 AIR SEA DIR/SP/G                  HT/PER
                 (F)     (DEG/KT/KT) (MB)    (MI)  (FT/S)
CALUMET HARBOR    30     340/ 22/ 28 1007.3R
MICHIGAN CITY     29     350/ 28/ 31   N/A
BURNS HARBOR      30     360/ 22/ 29 1007.1R
SAINT JOSEPH      26      30/ 14/ 22 1005.4

$$
&&




USA.gov is the U.S. government's official web portal to all federal, state and local government web resources and services.